Location: S�tio Afonso Gruber
(26.1760°S, 49.5250°W)
Time: 13:55:39
(UTC+00:00)

GEOS 3 Rocket - Pass Details

Date: 07 June 2020
Orbit: 772 x 847 km, 115.0° (Epoch: 07 July)

Event Time Altitude Azimuth Distance (km) Brightness Sun altitude
Rises 08:11:21 0° 150° (SSE) 3,269 7.0 -23.9°
Reaches altitude 10° 08:13:38 10° 149° (SSE) 2,335 6.2 -23.4°
Maximum altitude 08:18:41 90° 79° (E) 783 3.4 -22.3°
Drops below altitude 10° 08:23:43 10° 329° (NNW) 2,325 5.8 -21.2°
Sets 08:25:59 0° 328° (NNW) 3,254 6.6 -20.7°
